TimePST,TemperatureF,Dew PointF,Humidity,Sea Level PressureIn,VisibilityMPH,Wind Direction,Wind SpeedMPH,Gust SpeedMPH,PrecipitationIn,Events,Conditions,WindDirDegrees,DateUTC
12:06 AM,41.0,39.2,93,30.06,4.0,Calm,Calm,-,0.01,Rain,Light Rain,0,2012-12-16 08:06:00
12:56 AM,41.0,39.9,96,30.06,5.0,Calm,Calm,-,0.02,Rain,Light Rain,0,2012-12-16 08:56:00
1:49 AM,41.0,39.2,93,30.05,5.0,Calm,Calm,-,0.02,,Overcast,0,2012-12-16 09:49:00
1:56 AM,41.0,39.9,96,30.06,5.0,Calm,Calm,-,0.02,,Overcast,0,2012-12-16 09:56:00
2:29 AM,41.0,39.2,93,30.06,5.0,Calm,Calm,-,N/A,,Overcast,0,2012-12-16 10:29:00
2:56 AM,41.0,39.9,96,30.07,4.0,Calm,Calm,-,0.01,Rain,Light Rain,0,2012-12-16 10:56:00
3:10 AM,41.0,39.2,93,30.07,3.0,Calm,Calm,-,0.00,Rain,Light Rain,0,2012-12-16 11:10:00
3:23 AM,41.0,39.2,93,30.07,4.0,Calm,Calm,-,0.01,Rain,Light Rain,0,2012-12-16 11:23:00
3:56 AM,41.0,39.9,96,30.06,4.0,Calm,Calm,-,0.01,,Overcast,0,2012-12-16 11:56:00
4:43 AM,41.0,39.2,93,30.06,6.0,Calm,Calm,-,N/A,,Overcast,0,2012-12-16 12:43:00
4:56 AM,41.0,39.9,96,30.06,4.0,Calm,Calm,-,N/A,,Overcast,0,2012-12-16 12:56:00
5:45 AM,41.0,39.2,93,30.05,7.0,Calm,Calm,-,N/A,,Overcast,0,2012-12-16 13:45:00
5:56 AM,41.0,39.9,96,30.05,10.0,Calm,Calm,-,N/A,,Overcast,0,2012-12-16 13:56:00
6:29 AM,42.8,39.2,87,30.06,3.0,Calm,Calm,-,0.01,Rain,Light Rain,0,2012-12-16 14:29:00
6:56 AM,42.1,41.0,96,30.06,2.5,Calm,Calm,-,0.01,Rain,Light Rain,0,2012-12-16 14:56:00
7:09 AM,42.8,41.0,93,30.07,4.0,Calm,Calm,-,0.00,Rain,Light Rain,0,2012-12-16 15:09:00
7:37 AM,42.8,41.0,93,30.07,2.5,Calm,Calm,-,0.01,Rain,Light Rain,0,2012-12-16 15:37:00
7:47 AM,42.8,41.0,93,30.07,3.0,Calm,Calm,-,0.01,Rain,Light Rain,0,2012-12-16 15:47:00
7:52 AM,42.8,41.0,93,30.07,2.5,Calm,Calm,-,0.01,Rain,Light Rain,0,2012-12-16 15:52:00
7:56 AM,42.1,41.0,96,30.07,2.5,Calm,Calm,-,0.01,Rain,Light Rain,0,2012-12-16 15:56:00
8:00 AM,42.8,41.0,93,30.07,3.0,Calm,Calm,-,0.00,Rain,Light Rain,0,2012-12-16 16:00:00
8:08 AM,42.8,41.0,93,30.07,2.5,Calm,Calm,-,0.00,,Overcast,0,2012-12-16 16:08:00
8:18 AM,42.8,41.0,93,30.07,1.8,Calm,Calm,-,0.01,Rain,Light Rain,0,2012-12-16 16:18:00
8:42 AM,42.8,41.0,93,30.06,2.5,Calm,Calm,-,0.01,Rain,Light Rain,0,2012-12-16 16:42:00
8:47 AM,42.8,41.0,93,30.06,2.5,Calm,Calm,-,0.02,Rain,Light Rain,0,2012-12-16 16:47:00
8:56 AM,42.1,41.0,96,30.07,2.5,Calm,Calm,-,0.02,Rain,Light Rain,0,2012-12-16 16:56:00
9:03 AM,42.8,41.0,93,30.07,4.0,SE,3.5,-,0.00,,Overcast,130,2012-12-16 17:03:00
9:18 AM,42.8,41.0,93,30.08,2.5,Calm,Calm,-,0.00,,Overcast,0,2012-12-16 17:18:00
9:39 AM,42.8,41.0,93,30.09,2.0,Calm,Calm,-,0.00,Rain,Light Rain,0,2012-12-16 17:39:00
9:56 AM,43.0,42.1,97,30.09,2.0,Calm,Calm,-,0.00,Rain,Light Rain,0,2012-12-16 17:56:00
10:10 AM,42.8,42.8,100,30.09,2.0,Calm,Calm,-,0.01,Rain,Light Rain,0,2012-12-16 18:10:00
10:39 AM,42.8,42.8,100,30.08,3.0,Calm,Calm,-,0.01,Rain,Light Rain,0,2012-12-16 18:39:00
10:51 AM,44.6,42.8,93,30.08,5.0,Calm,Calm,-,0.01,,Overcast,0,2012-12-16 18:51:00
10:56 AM,44.1,43.0,96,30.07,5.0,Calm,Calm,-,0.01,,Overcast,0,2012-12-16 18:56:00
11:46 AM,44.6,42.8,93,30.06,10.0,SSE,3.5,-,N/A,,Overcast,160,2012-12-16 19:46:00
11:56 AM,46.0,44.1,93,30.06,10.0,SSE,5.8,-,N/A,,Overcast,160,2012-12-16 19:56:00
12:17 PM,46.4,44.6,93,30.05,1.8,South,5.8,-,0.01,Rain,Light Rain,170,2012-12-16 20:17:00
12:27 PM,46.4,44.6,93,30.04,2.5,SSE,5.8,-,0.02,Rain,Light Rain,150,2012-12-16 20:27:00
12:32 PM,46.4,44.6,93,30.04,3.0,SSE,5.8,-,0.02,Rain,Light Rain,160,2012-12-16 20:32:00
12:56 PM,46.9,45.0,93,30.02,6.0,SSE,9.2,-,0.02,Rain,Light Rain,160,2012-12-16 20:56:00
1:56 PM,48.0,46.0,93,29.99,4.0,SSW,3.5,-,0.00,Rain,Light Rain,200,2012-12-16 21:56:00
2:30 PM,48.2,46.4,93,30.00,4.0,SSE,6.9,-,0.02,Rain,Light Rain,160,2012-12-16 22:30:00
2:56 PM,48.0,46.0,93,29.99,3.0,SSE,6.9,-,0.02,Rain,Light Rain,160,2012-12-16 22:56:00
3:04 PM,48.2,46.4,93,29.99,2.5,SSE,6.9,-,0.00,Rain,Light Rain,160,2012-12-16 23:04:00
3:21 PM,46.4,46.4,100,29.99,3.0,SSE,8.1,-,0.01,Rain,Light Rain,160,2012-12-16 23:21:00
3:56 PM,48.0,46.0,93,29.99,9.0,SSE,5.8,-,0.01,,Overcast,160,2012-12-16 23:56:00
4:56 PM,48.0,46.0,93,29.99,8.0,South,6.9,-,0.00,Rain,Light Rain,170,2012-12-17 00:56:00
5:56 PM,48.0,46.0,93,29.98,4.0,South,8.1,-,0.01,Rain,Light Rain,170,2012-12-17 01:56:00
6:14 PM,48.2,46.4,93,29.97,10.0,South,8.1,-,0.00,,Overcast,180,2012-12-17 02:14:00
6:47 PM,48.2,46.4,93,29.97,10.0,SSE,8.1,-,0.01,,Overcast,160,2012-12-17 02:47:00
6:56 PM,48.0,46.0,93,29.96,10.0,SSE,11.5,18.4,0.01,,Overcast,160,2012-12-17 02:56:00
7:56 PM,48.9,46.0,90,29.97,10.0,South,6.9,-,N/A,,Overcast,170,2012-12-17 03:56:00
8:56 PM,48.9,46.9,93,29.96,10.0,SSE,9.2,-,N/A,,Overcast,160,2012-12-17 04:56:00
9:56 PM,48.9,46.9,93,29.95,10.0,SSE,9.2,-,0.00,,Overcast,160,2012-12-17 05:56:00
10:56 PM,50.0,48.0,93,29.95,3.0,South,8.1,-,0.03,Rain,Rain,170,2012-12-17 06:56:00
11:56 PM,51.1,48.9,92,29.93,10.0,South,10.4,-,0.02,,Overcast,170,2012-12-17 07:56:00